Eagle River, WI

9:55 AM CST on February 08, 2016 (GMT -0600)
Eagle River Union

Weather History for KEGV - January, 2013

Change the Weather History Date:

Thursday, January 31, 2013

  Actual Average Record
Temperature  
Mean Temperature 6 °F -  
Max Temperature 12 °F 22 °F 41 °F (2012)
Min Temperature 1 °F 4 °F -19 °F (1971)
Degree Days  
Heating Degree Days 58    
Moisture  
Dew Point 0 °F    
Average Humidity 74    
Maximum Humidity 85    
Minimum Humidity 62    
Precipitation  
Precipitation 0.00 in - - ()
Sea Level Pressure  
Sea Level Pressure 29.68 in    
Wind  
Wind Speed 11 mph (WNW)    
Max Wind Speed 18 mph    
Max Gust Speed 26 mph    
Visibility 6 miles    
Events Snow    
Averages and records for this station are not official NWS values.
T = Trace of Precipitation, MM = Missing Value Source: NWS Daily Summary

Daily Weather History Graph

Daily Weather History Graph

Search for Another Location

Airport or City:

Trip Planner

Search our weather history database for the weather conditions in past years. The results will help you decide how hot, cold, wet, or windy it might be!

Date:

Astronomy

Jan. 31, 2013 Rise Set
Actual Time 7:20 AM CST 5:01 PM CST
Civil Twilight 6:48 AM CST 5:33 PM CST
Nautical Twilight 6:12 AM CST 6:09 PM CST
Astronomical Twilight 5:37 AM CST 6:44 PM CST
Moon 10:24 PM CST (1/31) 9:01 AM CST (1/31)
Length of Visible Light 10h 45m
Length of Day
9h 41m
Waning Gibbous, 79% of the Moon is Illuminated
Jan 31
Waning Gibbous
Feb 3
Last Quarter
Feb 10
New
Feb 17
First Quarter
Feb 25
Full

Hourly Weather History & Observations

Time (CST) Temp. Windchill Dew Point Humidity Pressure Visibility Wind Dir Wind Speed Gust Speed Precip Events Conditions
12:15 AM 12.2 °F -3.1 °F 5.0 °F 73% 29.44 in 4.0 mi NNW 13.8 mph 17.3 mph N/A Snow Light Snow
12:55 AM 10.4 °F -4.1 °F 3.2 °F 73% 29.45 in 10.0 mi NNW 11.5 mph - N/A   Overcast
1:15 AM 10.4 °F -3.3 °F 3.2 °F 73% 29.46 in 10.0 mi NNW 10.4 mph - N/A   Overcast
1:35 AM 10.4 °F -4.1 °F 3.2 °F 73% 29.47 in 7.0 mi NNW 11.5 mph 17.3 mph N/A Snow Light Snow
1:55 AM 10.4 °F -3.3 °F 3.2 °F 73% 29.48 in 7.0 mi NW 10.4 mph - N/A Snow Light Snow
2:15 AM 10.4 °F -2.4 °F 3.2 °F 73% 29.48 in 10.0 mi NW 9.2 mph - N/A   Overcast
2:35 AM 10.4 °F -2.4 °F 3.2 °F 73% 29.48 in 7.0 mi NW 9.2 mph - N/A Snow Light Snow
2:55 AM 10.4 °F -3.3 °F 3.2 °F 73% 29.48 in 10.0 mi NW 10.4 mph - N/A   Overcast
3:15 AM 10.4 °F -0.4 °F 3.2 °F 73% 29.49 in 10.0 mi NW 6.9 mph - N/A   Overcast
3:35 AM 10.4 °F -1.5 °F 3.2 °F 73% 29.49 in 7.0 mi NW 8.1 mph - N/A Snow Light Snow
3:55 AM 10.4 °F -1.5 °F 3.2 °F 73% 29.50 in 7.0 mi WNW 8.1 mph - N/A Snow Light Snow
4:15 AM 10.4 °F -3.3 °F 3.2 °F 73% 29.50 in 5.0 mi NW 10.4 mph 16.1 mph N/A Snow Light Snow
4:35 AM 8.6 °F -6.3 °F 3.2 °F 79% 29.50 in 1.5 mi West 11.5 mph - N/A Snow Light Snow
4:55 AM 8.6 °F -5.5 °F 3.2 °F 79% 29.51 in 2.0 mi WNW 10.4 mph - N/A Snow Light Snow
5:15 AM 8.6 °F -4.7 °F 3.2 °F 79% 29.52 in 2.5 mi WNW 9.2 mph - N/A Snow Light Snow
5:35 AM 8.6 °F -6.3 °F 3.2 °F 79% 29.52 in 4.0 mi WNW 11.5 mph - N/A Snow Light Snow
5:55 AM 8.6 °F -5.5 °F 3.2 °F 79% 29.53 in 4.0 mi WNW 10.4 mph - N/A Snow Light Snow
6:15 AM 8.6 °F -6.3 °F 1.4 °F 73% 29.53 in 5.0 mi NW 11.5 mph - N/A Snow Light Snow
6:35 AM 8.6 °F -6.3 °F 1.4 °F 73% 29.54 in 5.0 mi WNW 11.5 mph 18.4 mph N/A Snow Light Snow
6:55 AM 6.8 °F -7.8 °F 1.4 °F 79% 29.54 in 7.0 mi WNW 10.4 mph - N/A Snow Light Snow
7:15 AM 6.8 °F -8.6 °F 1.4 °F 79% 29.56 in 5.0 mi WNW 11.5 mph - N/A Snow Light Snow
7:35 AM 6.8 °F -8.6 °F 1.4 °F 79% 29.57 in 4.0 mi WNW 11.5 mph - N/A Snow Light Snow
7:55 AM 5.0 °F -12.3 °F 1.4 °F 85% 29.57 in 5.0 mi West 13.8 mph - N/A Snow Light Snow
8:15 AM 5.0 °F -11.6 °F -0.4 °F 78% 29.58 in 7.0 mi WNW 12.7 mph 17.3 mph N/A Snow Light Snow
8:35 AM 5.0 °F -11.6 °F -0.4 °F 78% 29.59 in 10.0 mi WNW 12.7 mph - N/A   Overcast
8:55 AM 5.0 °F -11.6 °F -0.4 °F 78% 29.60 in 5.0 mi West 12.7 mph - N/A   Haze
9:15 AM 5.0 °F -11.6 °F -0.4 °F 78% 29.61 in 5.0 mi West 12.7 mph - N/A Snow Light Snow
9:35 AM 6.8 °F -10.0 °F -0.4 °F 72% 29.62 in 7.0 mi WNW 13.8 mph 17.3 mph N/A Snow Light Snow
9:55 AM 8.6 °F -5.5 °F 1.4 °F 73% 29.62 in 4.0 mi WNW 10.4 mph - N/A Snow Light Snow
10:15 AM 8.6 °F -7.7 °F 1.4 °F 73% 29.64 in 3.0 mi West 13.8 mph 18.4 mph N/A Snow Light Snow
10:35 AM 8.6 °F -4.7 °F 1.4 °F 73% 29.64 in 4.0 mi WNW 9.2 mph - N/A   Haze
10:55 AM 10.4 °F -4.8 °F 3.2 °F 73% 29.65 in 4.0 mi WNW 12.7 mph 19.6 mph N/A   Haze
11:15 AM 10.4 °F -4.1 °F 3.2 °F 73% 29.65 in 3.0 mi WNW 11.5 mph 16.1 mph N/A   Haze
11:35 AM 10.4 °F -3.3 °F 3.2 °F 73% 29.65 in 3.0 mi WNW 10.4 mph 17.3 mph N/A Snow Light Snow
11:55 AM 10.4 °F -4.8 °F 3.2 °F 73% 29.65 in 1.5 mi NW 12.7 mph - N/A Snow Light Snow
12:15 PM 10.4 °F -2.4 °F 5.0 °F 79% 29.66 in 0.5 mi NNW 9.2 mph - N/A Snow Light Snow
12:35 PM 10.4 °F -1.5 °F 3.2 °F 73% 29.67 in 2.0 mi NNW 8.1 mph - N/A Snow Light Snow
12:55 PM 10.4 °F -4.1 °F 5.0 °F 79% 29.67 in 1.2 mi NW 11.5 mph 18.4 mph N/A Snow Light Snow
1:15 PM 10.4 °F -6.0 °F 3.2 °F 73% 29.68 in 1.2 mi NNW 15.0 mph 21.9 mph N/A Snow Light Snow
1:35 PM 12.2 °F -3.1 °F 1.4 °F 62% 29.68 in 2.5 mi NNW 13.8 mph 20.7 mph N/A   Haze
1:55 PM 10.4 °F -5.4 °F -0.4 °F 62% 29.69 in 3.0 mi NW 13.8 mph 25.3 mph N/A   Haze
2:15 PM 10.4 °F -7.7 °F -0.4 °F 62% 29.70 in 1.8 mi NNW 18.4 mph 26.5 mph N/A Snow Light Snow
2:35 PM 10.4 °F -5.4 °F 1.4 °F 67% 29.71 in 2.5 mi NW 13.8 mph 19.6 mph N/A Snow Light Snow
2:55 PM 10.4 °F -6.6 °F 1.4 °F 67% 29.72 in 2.0 mi NW 16.1 mph 20.7 mph N/A Snow Light Snow
3:15 PM 10.4 °F -4.1 °F 1.4 °F 67% 29.74 in 2.5 mi WNW 11.5 mph 19.6 mph N/A Snow Light Snow
3:55 PM 8.6 °F -7.0 °F 1.4 °F 73% 29.76 in 3.0 mi NW 12.7 mph 16.1 mph N/A Snow Light Snow
4:15 PM 8.6 °F -8.3 °F -0.4 °F 67% 29.77 in 4.0 mi NW 15.0 mph 20.7 mph N/A Snow Light Snow
4:35 PM 6.8 °F -10.7 °F -0.4 °F 72% 29.78 in 4.0 mi NW 15.0 mph 21.9 mph N/A Snow Light Snow
4:55 PM 6.8 °F -8.6 °F -0.4 °F 72% 29.79 in 4.0 mi WNW 11.5 mph 21.9 mph N/A Snow Light Snow
5:15 PM 5.0 °F -10.0 °F -2.2 °F 72% 29.80 in 7.0 mi WNW 10.4 mph 18.4 mph N/A   Overcast
5:35 PM 5.0 °F -10.8 °F -2.2 °F 72% 29.82 in 10.0 mi WNW 11.5 mph - N/A   Overcast
5:55 PM 5.0 °F -10.0 °F -4.0 °F 66% 29.82 in 10.0 mi WNW 10.4 mph - N/A Snow Light Snow
6:15 PM 5.0 °F -11.6 °F -2.2 °F 72% 29.83 in 10.0 mi WNW 12.7 mph - N/A Snow Light Snow
6:35 PM 3.2 °F -13.9 °F -4.0 °F 72% 29.84 in 10.0 mi WNW 12.7 mph - N/A   Clear
6:55 PM 3.2 °F -10.3 °F -4.0 °F 72% 29.84 in 10.0 mi WNW 8.1 mph - N/A   Clear
7:15 PM 3.2 °F -13.1 °F -4.0 °F 72% 29.86 in 10.0 mi WNW 11.5 mph - N/A   Scattered Clouds
7:35 PM 3.2 °F -11.3 °F -4.0 °F 72% 29.86 in 10.0 mi WNW 9.2 mph - N/A   Clear
8:15 PM 3.2 °F -10.3 °F -4.0 °F 72% 29.87 in 10.0 mi WNW 8.1 mph - N/A   Clear
8:35 PM 3.2 °F -11.3 °F -4.0 °F 72% 29.88 in 10.0 mi WNW 9.2 mph - N/A   Clear
8:55 PM 3.2 °F -10.3 °F -4.0 °F 72% 29.89 in 10.0 mi WNW 8.1 mph - N/A   Scattered Clouds
9:15 PM 3.2 °F -12.2 °F -4.0 °F 72% 29.89 in 10.0 mi West 10.4 mph - N/A   Scattered Clouds
9:35 PM 1.4 °F -14.5 °F -4.0 °F 78% 29.89 in 10.0 mi WNW 10.4 mph - N/A   Clear
9:55 PM 1.4 °F -14.5 °F -4.0 °F 78% 29.90 in 10.0 mi WNW 10.4 mph - N/A   Mostly Cloudy
10:15 PM 1.4 °F -12.5 °F -4.0 °F 78% 29.90 in 10.0 mi West 8.1 mph - N/A   Mostly Cloudy
10:35 PM 1.4 °F -15.3 °F -4.0 °F 78% 29.91 in 10.0 mi West 11.5 mph - N/A   Mostly Cloudy
10:55 PM 1.4 °F -13.5 °F -4.0 °F 78% 29.91 in 10.0 mi WNW 9.2 mph - N/A   Scattered Clouds
11:15 PM 1.4 °F -13.5 °F -4.0 °F 78% 29.91 in 10.0 mi West 9.2 mph - N/A   Mostly Cloudy
11:35 PM 1.4 °F -12.5 °F -4.0 °F 78% 29.92 in 10.0 mi WNW 8.1 mph - N/A   Scattered Clouds
11:55 PM 1.4 °F -13.5 °F -4.0 °F 78% 29.93 in 10.0 mi WNW 9.2 mph - N/A   Scattered Clouds